Time,TemperatureF,DewpointF,PressureIn,WindDirection,WindDirectionDegrees,WindSpeedMPH,WindSpeedGustMPH,Humidity,HourlyPrecipIn,Conditions,Clouds,dailyrainin,SoftwareType,DateUTC
2013-01-16 00:02:00,29.1,27.8,30.05,North,0,0.0,-999.0,95,0.23,,,0.33,Wunderground v.1.15,2013-01-16 05:02:00,
2013-01-16 00:07:00,29.1,27.8,30.05,North,0,0.0,-999.0,95,0.23,,,0.33,Wunderground v.1.15,2013-01-16 05:07:00,
2013-01-16 00:12:00,29.1,27.8,30.05,North,0,0.0,-999.0,95,0.23,,,0.33,Wunderground v.1.15,2013-01-16 05:12:00,
2013-01-16 00:17:00,29.1,27.8,30.05,North,0,0.0,-999.0,95,0.23,,,0.33,Wunderground v.1.15,2013-01-16 05:17:00,
2013-01-16 00:22:00,29.1,27.8,30.05,North,0,0.0,-999.0,95,0.23,,,0.33,Wunderground v.1.15,2013-01-16 05:22:00,
2013-01-16 00:27:00,29.1,27.8,30.05,N/A,-737280,0.0,-999.0,95,0.23,,,0.33,Wunderground v.1.15,2013-01-16 05:27:00,
2013-01-16 00:32:00,29.1,27.8,30.05,N/A,-737280,0.0,-999.0,95,0.23,,,0.33,Wunderground v.1.15,2013-01-16 05:32:00,
2013-01-16 00:37:00,29.1,27.8,30.05,N/A,-737280,0.0,-999.0,95,0.23,,,0.33,Wunderground v.1.15,2013-01-16 05:37:00,
2013-01-16 00:42:00,29.1,27.8,30.04,N/A,-737280,0.0,-999.0,95,0.00,,,0.33,Wunderground v.1.15,2013-01-16 05:42:00,
2013-01-16 00:47:00,29.1,27.8,30.04,N/A,-737280,0.0,-999.0,95,0.00,,,0.33,Wunderground v.1.15,2013-01-16 05:47:00,
2013-01-16 00:52:00,29.1,27.8,30.04,N/A,-737280,0.0,-999.0,95,0.00,,,0.33,Wunderground v.1.15,2013-01-16 05:52:00,
2013-01-16 00:57:00,29.2,28.2,30.03,N/A,-737280,0.0,-999.0,96,0.00,,,0.33,Wunderground v.1.15,2013-01-16 05:57:00,
2013-01-16 01:02:00,29.2,28.2,30.03,N/A,-737280,0.0,-999.0,96,0.00,,,0.33,Wunderground v.1.15,2013-01-16 06:02:00,
2013-01-16 01:07:00,29.2,28.2,30.03,N/A,-737280,0.0,-999.0,96,0.00,,,0.33,Wunderground v.1.15,2013-01-16 06:07:00,
2013-01-16 01:12:00,29.2,28.2,30.04,NNW,338,0.0,-999.0,96,0.00,,,0.33,Wunderground v.1.15,2013-01-16 06:12:00,
2013-01-16 01:17:00,29.2,28.2,30.04,NNW,338,0.0,-999.0,96,0.00,,,0.33,Wunderground v.1.15,2013-01-16 06:17:00,
2013-01-16 01:22:00,29.2,28.2,30.04,NNW,338,0.0,-999.0,96,0.00,,,0.33,Wunderground v.1.15,2013-01-16 06:22:00,
2013-01-16 01:27:00,29.1,28.1,30.02,NNE,23,0.0,-999.0,96,0.00,,,0.33,Wunderground v.1.15,2013-01-16 06:27:00,
2013-01-16 01:32:00,29.1,28.1,30.02,NNE,23,0.0,-999.0,96,0.00,,,0.33,Wunderground v.1.15,2013-01-16 06:32:00,
2013-01-16 01:37:00,29.1,28.1,30.02,NNE,23,0.0,-999.0,96,0.00,,,0.33,Wunderground v.1.15,2013-01-16 06:37:00,
2013-01-16 01:42:00,28.9,27.9,30.02,North,0,0.0,-999.0,96,0.00,,,0.33,Wunderground v.1.15,2013-01-16 06:42:00,
2013-01-16 01:47:00,28.9,27.9,30.02,North,0,0.0,-999.0,96,0.00,,,0.33,Wunderground v.1.15,2013-01-16 06:47:00,
2013-01-16 01:52:00,28.9,27.9,30.02,North,0,0.0,-999.0,96,0.00,,,0.33,Wunderground v.1.15,2013-01-16 06:52:00,
2013-01-16 01:57:00,28.9,27.9,30.01,NNE,23,0.0,-999.0,96,0.00,,,0.33,Wunderground v.1.15,2013-01-16 06:57:00,
2013-01-16 02:02:00,28.9,27.9,30.01,NNE,23,0.0,-999.0,96,0.00,,,0.33,Wunderground v.1.15,2013-01-16 07:02:00,
2013-01-16 02:07:00,28.9,27.9,30.01,NNE,23,0.0,-999.0,96,0.00,,,0.33,Wunderground v.1.15,2013-01-16 07:07:00,
2013-01-16 02:12:00,28.8,27.8,30.01,NNW,338,0.0,-999.0,96,0.00,,,0.33,Wunderground v.1.15,2013-01-16 07:12:00,
2013-01-16 02:17:00,28.8,27.8,30.01,NNW,338,0.0,-999.0,96,0.00,,,0.33,Wunderground v.1.15,2013-01-16 07:17:00,
2013-01-16 02:22:00,28.8,27.8,30.01,NNW,338,0.0,-999.0,96,0.00,,,0.33,Wunderground v.1.15,2013-01-16 07:22:00,
2013-01-16 02:27:00,28.9,27.9,30.02,NNW,338,0.0,-999.0,96,0.00,,,0.33,Wunderground v.1.15,2013-01-16 07:27:00,
2013-01-16 02:32:00,28.9,27.9,30.02,NNW,338,0.0,-999.0,96,0.00,,,0.33,Wunderground v.1.15,2013-01-16 07:32:00,
2013-01-16 02:37:00,28.9,27.9,30.02,NNW,338,0.0,-999.0,96,0.00,,,0.33,Wunderground v.1.15,2013-01-16 07:37:00,
2013-01-16 02:42:00,29.0,28.0,30.01,N/A,-737280,0.0,-999.0,96,0.00,,,0.33,Wunderground v.1.15,2013-01-16 07:42:00,
2013-01-16 02:47:00,29.0,28.0,30.01,N/A,-737280,0.0,-999.0,96,0.00,,,0.33,Wunderground v.1.15,2013-01-16 07:47:00,
2013-01-16 02:52:00,29.0,28.0,30.01,N/A,-737280,0.0,-999.0,96,0.00,,,0.33,Wunderground v.1.15,2013-01-16 07:52:00,
2013-01-16 02:57:00,29.0,28.0,30.00,North,0,0.0,-999.0,96,0.00,,,0.33,Wunderground v.1.15,2013-01-16 07:57:00,
2013-01-16 03:02:00,29.0,28.0,30.00,North,0,0.0,-999.0,96,0.00,,,0.33,Wunderground v.1.15,2013-01-16 08:02:00,
2013-01-16 03:07:00,29.0,28.0,30.00,North,0,0.0,-999.0,96,0.00,,,0.33,Wunderground v.1.15,2013-01-16 08:07:00,
2013-01-16 03:12:00,29.0,28.0,30.00,N/A,-737280,0.0,-999.0,96,0.00,,,0.33,Wunderground v.1.15,2013-01-16 08:12:00,
2013-01-16 03:17:00,29.0,28.0,30.00,N/A,-737280,0.0,-999.0,96,0.00,,,0.33,Wunderground v.1.15,2013-01-16 08:17:00,
2013-01-16 03:22:00,29.0,28.0,30.00,N/A,-737280,0.0,-999.0,96,0.00,,,0.33,Wunderground v.1.15,2013-01-16 08:22:00,
2013-01-16 03:27:00,29.1,28.1,29.99,N/A,-737280,0.0,-999.0,96,0.00,,,0.33,Wunderground v.1.15,2013-01-16 08:27:00,
2013-01-16 03:32:00,29.1,28.1,29.99,N/A,-737280,0.0,-999.0,96,0.00,,,0.33,Wunderground v.1.15,2013-01-16 08:32:00,
2013-01-16 03:37:00,29.1,28.1,29.99,N/A,-737280,0.0,-999.0,96,0.00,,,0.33,Wunderground v.1.15,2013-01-16 08:37:00,
2013-01-16 03:42:00,29.1,28.4,29.99,N/A,-737280,0.0,-999.0,97,0.00,,,0.33,Wunderground v.1.15,2013-01-16 08:42:00,
2013-01-16 03:47:00,29.1,28.4,29.99,N/A,-737280,0.0,-999.0,97,0.00,,,0.33,Wunderground v.1.15,2013-01-16 08:47:00,
2013-01-16 03:52:00,29.1,28.4,29.99,N/A,-737280,0.0,-999.0,97,0.00,,,0.33,Wunderground v.1.15,2013-01-16 08:52:00,
2013-01-16 03:57:00,29.2,28.5,29.98,N/A,-737280,0.0,-999.0,97,0.00,,,0.33,Wunderground v.1.15,2013-01-16 08:57:00,
2013-01-16 04:02:00,29.2,28.5,29.98,N/A,-737280,0.0,-999.0,97,0.00,,,0.33,Wunderground v.1.15,2013-01-16 09:02:00,
2013-01-16 04:07:00,29.2,28.5,29.98,N/A,-737280,0.0,-999.0,97,0.00,,,0.33,Wunderground v.1.15,2013-01-16 09:07:00,
2013-01-16 04:12:00,29.2,28.5,29.97,NW,315,0.0,-999.0,97,0.00,,,0.33,Wunderground v.1.15,2013-01-16 09:12:00,
2013-01-16 04:17:00,29.2,28.5,29.97,NW,315,0.0,-999.0,97,0.00,,,0.33,Wunderground v.1.15,2013-01-16 09:17:00,
2013-01-16 04:22:00,29.2,28.5,29.97,NW,315,0.0,-999.0,97,0.00,,,0.33,Wunderground v.1.15,2013-01-16 09:22:00,
2013-01-16 04:27:00,29.1,28.4,29.97,North,0,0.0,-999.0,97,0.00,,,0.33,Wunderground v.1.15,2013-01-16 09:27:00,
2013-01-16 04:32:00,29.1,28.4,29.97,North,0,0.0,-999.0,97,0.00,,,0.33,Wunderground v.1.15,2013-01-16 09:32:00,
2013-01-16 04:37:00,29.1,28.4,29.97,North,0,0.0,-999.0,97,0.00,,,0.33,Wunderground v.1.15,2013-01-16 09:37:00,
2013-01-16 04:42:00,29.0,28.3,29.98,North,0,0.0,-999.0,97,0.00,,,0.33,Wunderground v.1.15,2013-01-16 09:42:00,
2013-01-16 04:47:00,29.0,28.3,29.98,North,0,0.0,-999.0,97,0.00,,,0.33,Wunderground v.1.15,2013-01-16 09:47:00,
2013-01-16 04:52:00,29.0,28.3,29.98,North,0,0.0,-999.0,97,0.00,,,0.33,Wunderground v.1.15,2013-01-16 09:52:00,
2013-01-16 04:57:00,29.1,28.4,29.97,North,0,0.0,-999.0,97,0.00,,,0.33,Wunderground v.1.15,2013-01-16 09:57:00,
2013-01-16 05:02:00,29.1,28.4,29.97,North,0,0.0,-999.0,97,0.00,,,0.33,Wunderground v.1.15,2013-01-16 10:02:00,
2013-01-16 05:07:00,29.1,28.4,29.97,North,0,0.0,-999.0,97,0.00,,,0.33,Wunderground v.1.15,2013-01-16 10:07:00,
2013-01-16 05:12:00,29.2,28.5,29.96,NW,315,0.0,-999.0,97,0.00,,,0.33,Wunderground v.1.15,2013-01-16 10:12:00,
2013-01-16 05:17:00,29.2,28.5,29.96,NW,315,0.0,-999.0,97,0.00,,,0.33,Wunderground v.1.15,2013-01-16 10:17:00,
2013-01-16 05:22:00,29.2,28.5,29.96,NW,315,0.0,-999.0,97,0.00,,,0.33,Wunderground v.1.15,2013-01-16 10:22:00,
2013-01-16 05:27:00,29.4,28.7,29.94,N/A,-737280,0.0,-999.0,97,0.00,,,0.33,Wunderground v.1.15,2013-01-16 10:27:00,
2013-01-16 05:32:00,29.4,28.7,29.94,N/A,-737280,0.0,-999.0,97,0.00,,,0.33,Wunderground v.1.15,2013-01-16 10:32:00,
2013-01-16 05:37:00,29.4,28.7,29.94,N/A,-737280,0.0,-999.0,97,0.00,,,0.33,Wunderground v.1.15,2013-01-16 10:37:00,
2013-01-16 05:42:00,29.6,28.9,29.94,NNW,338,0.0,-999.0,97,0.00,,,0.33,Wunderground v.1.15,2013-01-16 10:42:00,
2013-01-16 05:47:00,29.6,28.9,29.94,NNW,338,0.0,-999.0,97,0.00,,,0.33,Wunderground v.1.15,2013-01-16 10:47:00,
2013-01-16 05:52:00,29.6,28.9,29.94,NNW,338,0.0,-999.0,97,0.00,,,0.33,Wunderground v.1.15,2013-01-16 10:52:00,
2013-01-16 05:57:00,29.7,29.0,29.93,North,0,0.0,-999.0,97,0.00,,,0.33,Wunderground v.1.15,2013-01-16 10:57:00,
2013-01-16 06:02:00,29.7,29.0,29.93,North,0,0.0,-999.0,97,0.00,,,0.33,Wunderground v.1.15,2013-01-16 11:02:00,
2013-01-16 06:07:00,29.7,29.0,29.93,North,0,0.0,-999.0,97,0.00,,,0.33,Wunderground v.1.15,2013-01-16 11:07:00,
2013-01-16 06:12:00,29.9,29.2,29.92,NNW,338,0.0,-999.0,97,0.00,,,0.33,Wunderground v.1.15,2013-01-16 11:12:00,
2013-01-16 06:17:00,29.9,29.2,29.92,NNW,338,0.0,-999.0,97,0.00,,,0.33,Wunderground v.1.15,2013-01-16 11:17:00,
2013-01-16 06:22:00,29.9,29.2,29.92,NNW,338,0.0,-999.0,97,0.00,,,0.33,Wunderground v.1.15,2013-01-16 11:22:00,
2013-01-16 06:27:00,30.0,29.3,29.92,NNW,338,0.0,-999.0,97,0.00,,,0.33,Wunderground v.1.15,2013-01-16 11:27:00,
2013-01-16 06:32:00,30.0,29.3,29.92,NNW,338,0.0,-999.0,97,0.00,,,0.33,Wunderground v.1.15,2013-01-16 11:32:00,
2013-01-16 06:37:00,30.0,29.3,29.92,NNW,338,0.0,-999.0,97,0.00,,,0.33,Wunderground v.1.15,2013-01-16 11:37:00,
2013-01-16 06:42:00,30.1,29.4,29.92,N/A,-737280,0.0,-999.0,97,0.00,,,0.33,Wunderground v.1.15,2013-01-16 11:42:00,
2013-01-16 06:47:00,30.1,29.4,29.92,N/A,-737280,0.0,-999.0,97,0.00,,,0.33,Wunderground v.1.15,2013-01-16 11:47:00,
2013-01-16 06:52:00,30.1,29.4,29.92,N/A,-737280,0.0,-999.0,97,0.00,,,0.33,Wunderground v.1.15,2013-01-16 11:52:00,
2013-01-16 06:57:00,30.1,29.4,29.90,N/A,-737280,0.0,-999.0,97,0.28,,,0.33,Wunderground v.1.15,2013-01-16 11:57:00,
2013-01-16 07:02:00,30.1,29.4,29.90,N/A,-737280,0.0,-999.0,97,0.28,,,0.33,Wunderground v.1.15,2013-01-16 12:02:00,
2013-01-16 07:07:00,30.1,29.4,29.90,N/A,-737280,0.0,-999.0,97,0.28,,,0.33,Wunderground v.1.15,2013-01-16 12:07:00,
2013-01-16 07:12:00,30.1,29.4,29.90,N/A,-737280,0.0,-999.0,97,0.28,,,0.33,Wunderground v.1.15,2013-01-16 12:12:00,
2013-01-16 07:17:00,30.1,29.4,29.90,N/A,-737280,0.0,-999.0,97,0.28,,,0.33,Wunderground v.1.15,2013-01-16 12:17:00,
2013-01-16 07:22:00,30.1,29.4,29.90,N/A,-737280,0.0,-999.0,97,0.28,,,0.33,Wunderground v.1.15,2013-01-16 12:22:00,
2013-01-16 07:27:00,30.1,29.4,29.92,N/A,-737280,0.0,-999.0,97,0.28,,,0.33,Wunderground v.1.15,2013-01-16 12:27:00,
2013-01-16 07:32:00,30.1,29.4,29.92,N/A,-737280,0.0,-999.0,97,0.28,,,0.33,Wunderground v.1.15,2013-01-16 12:32:00,
2013-01-16 07:37:00,30.1,29.4,29.92,N/A,-737280,0.0,-999.0,97,0.28,,,0.33,Wunderground v.1.15,2013-01-16 12:37:00,
2013-01-16 07:42:00,30.1,29.4,29.91,North,0,0.0,-999.0,97,0.28,,,0.33,Wunderground v.1.15,2013-01-16 12:42:00,
2013-01-16 07:47:00,30.2,29.5,29.91,North,349,0.0,0.0,97,0.00,,,0.28,Wunderground v.1.15,2013-01-16 12:47:00,
2013-01-16 07:49:00,30.1,29.4,29.92,North,349,0.0,0.0,97,0.00,,,0.28,Wunderground v.1.15,2013-01-16 12:49:00,
2013-01-16 07:50:00,30.2,29.5,29.92,North,349,0.0,1.0,97,0.00,,,0.28,Wunderground v.1.15,2013-01-16 12:50:00,
2013-01-16 07:51:00,30.2,29.5,29.92,North,351,0.0,1.0,97,0.00,,,0.28,Wunderground v.1.15,2013-01-16 12:51:00,
2013-01-16 07:52:00,30.1,29.4,29.91,North,0,0.0,-999.0,97,0.28,,,0.33,Wunderground v.1.15,2013-01-16 12:52:00,
2013-01-16 07:56:00,30.2,29.5,29.92,North,349,0.0,0.0,97,0.00,,,0.28,Wunderground v.1.15,2013-01-16 12:56:00,
2013-01-16 07:57:00,30.2,29.5,29.92,North,0,0.0,-999.0,97,0.00,,,0.33,Wunderground v.1.15,2013-01-16 12:57:00,
2013-01-16 08:02:00,30.2,29.5,29.92,NNW,347,0.0,0.0,97,0.00,,,0.28,Wunderground v.1.15,2013-01-16 13:02:00,
2013-01-16 08:07:00,30.3,29.6,29.92,NNW,347,0.0,0.0,97,0.00,,,0.28,Wunderground v.1.15,2013-01-16 13:07:00,
2013-01-16 08:12:00,30.3,29.6,29.92,N/A,-737280,0.0,-999.0,97,0.00,,,0.33,Wunderground v.1.15,2013-01-16 13:12:00,
2013-01-16 08:13:00,30.4,29.7,29.92,NNW,347,0.0,0.0,97,0.00,,,0.28,Wunderground v.1.15,2013-01-16 13:13:00,
2013-01-16 08:17:00,30.3,29.6,29.92,N/A,-737280,0.0,-999.0,97,0.00,,,0.33,Wunderground v.1.15,2013-01-16 13:17:00,
2013-01-16 08:18:00,30.5,29.8,29.92,NNW,347,0.0,0.0,97,0.00,,,0.28,Wunderground v.1.15,2013-01-16 13:18:00,
2013-01-16 08:22:00,30.3,29.6,29.92,N/A,-737280,0.0,-999.0,97,0.00,,,0.33,Wunderground v.1.15,2013-01-16 13:22:00,
2013-01-16 08:23:00,30.6,29.9,29.90,North,7,0.0,0.0,97,0.00,,,0.28,Wunderground v.1.15,2013-01-16 13:23:00,
2013-01-16 08:27:00,30.6,29.9,29.90,N/A,-737280,0.0,-999.0,97,0.00,,,0.33,Wunderground v.1.15,2013-01-16 13:27:00,
2013-01-16 08:28:00,30.8,30.0,29.90,NNW,345,0.0,0.0,97,0.00,,,0.28,Wunderground v.1.15,2013-01-16 13:28:00,
2013-01-16 08:32:00,30.6,29.9,29.90,N/A,-737280,0.0,-999.0,97,0.00,,,0.33,Wunderground v.1.15,2013-01-16 13:32:00,
2013-01-16 08:33:00,30.8,30.0,29.90,NNW,341,0.0,0.0,97,0.00,,,0.28,Wunderground v.1.15,2013-01-16 13:33:00,
2013-01-16 08:37:00,30.6,29.9,29.90,N/A,-737280,0.0,-999.0,97,0.00,,,0.33,Wunderground v.1.15,2013-01-16 13:37:00,
2013-01-16 08:38:00,30.9,30.1,29.90,NNW,340,0.0,0.0,97,0.00,,,0.28,Wunderground v.1.15,2013-01-16 13:38:00,
2013-01-16 08:42:00,30.9,30.1,29.88,NNW,338,0.0,-999.0,97,0.00,,,0.33,Wunderground v.1.15,2013-01-16 13:42:00,
2013-01-16 08:47:00,30.9,30.1,29.88,NNW,338,0.0,-999.0,97,0.00,,,0.33,Wunderground v.1.15,2013-01-16 13:47:00,
2013-01-16 08:52:00,30.9,30.1,29.88,NNW,338,0.0,-999.0,97,0.00,,,0.33,Wunderground v.1.15,2013-01-16 13:52:00,
2013-01-16 08:57:00,31.0,30.2,29.93,NNW,338,0.0,-999.0,97,0.00,,,0.33,Wunderground v.1.15,2013-01-16 13:57:00,
2013-01-16 09:02:00,31.0,30.2,29.93,NNW,338,0.0,-999.0,97,0.00,,,0.33,Wunderground v.1.15,2013-01-16 14:02:00,
2013-01-16 09:07:00,31.0,30.2,29.93,NNW,338,0.0,-999.0,97,0.00,,,0.33,Wunderground v.1.15,2013-01-16 14:07:00,
2013-01-16 09:12:00,31.0,30.2,29.93,N/A,-737280,0.0,-999.0,97,0.00,,,0.33,Wunderground v.1.15,2013-01-16 14:12:00,
2013-01-16 09:17:00,31.0,30.2,29.93,N/A,-737280,0.0,-999.0,97,0.00,,,0.33,Wunderground v.1.15,2013-01-16 14:17:00,
2013-01-16 09:22:00,31.0,30.2,29.93,N/A,-737280,0.0,-999.0,97,0.00,,,0.33,Wunderground v.1.15,2013-01-16 14:22:00,
2013-01-16 09:27:00,31.0,30.2,29.90,N/A,-737280,0.0,-999.0,97,0.00,,,0.33,Wunderground v.1.15,2013-01-16 14:27:00,
2013-01-16 09:32:00,31.0,30.2,29.90,N/A,-737280,0.0,-999.0,97,0.00,,,0.33,Wunderground v.1.15,2013-01-16 14:32:00,
2013-01-16 09:37:00,31.0,30.2,29.90,N/A,-737280,0.0,-999.0,97,0.00,,,0.33,Wunderground v.1.15,2013-01-16 14:37:00,
2013-01-16 09:42:00,31.0,30.2,29.91,N/A,-737280,0.0,-999.0,97,0.00,,,0.33,Wunderground v.1.15,2013-01-16 14:42:00,
2013-01-16 09:47:00,31.0,30.2,29.91,N/A,-737280,0.0,-999.0,97,0.00,,,0.33,Wunderground v.1.15,2013-01-16 14:47:00,
2013-01-16 09:52:00,31.0,30.2,29.91,N/A,-737280,0.0,-999.0,97,0.00,,,0.33,Wunderground v.1.15,2013-01-16 14:52:00,
2013-01-16 09:57:00,31.1,30.3,29.89,N/A,-737280,0.0,-999.0,97,0.00,,,0.33,Wunderground v.1.15,2013-01-16 14:57:00,
2013-01-16 10:02:00,31.1,30.3,29.89,N/A,-737280,0.0,-999.0,97,0.00,,,0.33,Wunderground v.1.15,2013-01-16 15:02:00,
2013-01-16 10:07:00,31.1,30.3,29.89,N/A,-737280,0.0,-999.0,97,0.00,,,0.33,Wunderground v.1.15,2013-01-16 15:07:00,
2013-01-16 10:12:00,31.1,30.3,29.87,N/A,-737280,0.0,-999.0,97,0.00,,,0.33,Wunderground v.1.15,2013-01-16 15:12:00,
2013-01-16 10:17:00,31.1,30.3,29.87,N/A,-737280,0.0,-999.0,97,0.00,,,0.33,Wunderground v.1.15,2013-01-16 15:17:00,
2013-01-16 10:22:00,31.1,30.3,29.87,N/A,-737280,0.0,-999.0,97,0.00,,,0.33,Wunderground v.1.15,2013-01-16 15:22:00,
2013-01-16 10:27:00,31.1,30.3,29.88,N/A,-737280,0.0,-999.0,97,0.00,,,0.33,Wunderground v.1.15,2013-01-16 15:27:00,
2013-01-16 10:32:00,31.1,30.3,29.88,N/A,-737280,0.0,-999.0,97,0.00,,,0.33,Wunderground v.1.15,2013-01-16 15:32:00,
2013-01-16 10:37:00,31.1,30.3,29.88,N/A,-737280,0.0,-999.0,97,0.00,,,0.33,Wunderground v.1.15,2013-01-16 15:37:00,
2013-01-16 10:42:00,31.2,30.4,29.86,N/A,-737280,0.0,-999.0,97,0.00,,,0.33,Wunderground v.1.15,2013-01-16 15:42:00,
2013-01-16 10:47:00,31.2,30.4,29.86,N/A,-737280,0.0,-999.0,97,0.00,,,0.33,Wunderground v.1.15,2013-01-16 15:47:00,
2013-01-16 10:52:00,31.2,30.4,29.86,N/A,-737280,0.0,-999.0,97,0.00,,,0.33,Wunderground v.1.15,2013-01-16 15:52:00,
2013-01-16 10:57:00,31.3,30.5,29.85,N/A,-737280,0.0,-999.0,97,0.00,,,0.33,Wunderground v.1.15,2013-01-16 15:57:00,
2013-01-16 11:02:00,31.3,30.5,29.85,N/A,-737280,0.0,-999.0,97,0.00,,,0.33,Wunderground v.1.15,2013-01-16 16:02:00,
2013-01-16 11:07:00,31.3,30.5,29.85,N/A,-737280,0.0,-999.0,97,0.00,,,0.33,Wunderground v.1.15,2013-01-16 16:07:00,
2013-01-16 11:12:00,31.3,30.5,29.86,N/A,-737280,0.0,-999.0,97,0.00,,,0.33,Wunderground v.1.15,2013-01-16 16:12:00,
2013-01-16 11:17:00,31.3,30.5,29.86,N/A,-737280,0.0,-999.0,97,0.00,,,0.33,Wunderground v.1.15,2013-01-16 16:17:00,
2013-01-16 11:22:00,31.3,30.5,29.86,N/A,-737280,0.0,-999.0,97,0.00,,,0.33,Wunderground v.1.15,2013-01-16 16:22:00,
2013-01-16 11:27:00,31.5,30.7,29.83,N/A,-737280,0.0,-999.0,97,0.00,,,0.33,Wunderground v.1.15,2013-01-16 16:27:00,
2013-01-16 11:32:00,31.5,30.7,29.83,N/A,-737280,0.0,-999.0,97,0.00,,,0.33,Wunderground v.1.15,2013-01-16 16:32:00,
2013-01-16 11:37:00,31.5,30.7,29.83,N/A,-737280,0.0,-999.0,97,0.00,,,0.33,Wunderground v.1.15,2013-01-16 16:37:00,
2013-01-16 11:42:00,31.5,30.7,29.84,N/A,-737280,0.0,-999.0,97,0.00,,,0.33,Wunderground v.1.15,2013-01-16 16:42:00,
2013-01-16 11:47:00,31.5,30.7,29.84,N/A,-737280,0.0,-999.0,97,0.00,,,0.33,Wunderground v.1.15,2013-01-16 16:47:00,
2013-01-16 11:52:00,31.5,30.7,29.84,N/A,-737280,0.0,-999.0,97,0.00,,,0.33,Wunderground v.1.15,2013-01-16 16:52:00,
2013-01-16 11:57:00,31.6,30.8,29.86,N/A,-737280,0.0,-999.0,97,0.00,,,0.33,Wunderground v.1.15,2013-01-16 16:57:00,
2013-01-16 12:02:00,31.6,30.8,29.86,N/A,-737280,0.0,-999.0,97,0.00,,,0.33,Wunderground v.1.15,2013-01-16 17:02:00,
2013-01-16 12:07:00,31.6,30.8,29.86,N/A,-737280,0.0,-999.0,97,0.00,,,0.33,Wunderground v.1.15,2013-01-16 17:07:00,
2013-01-16 12:12:00,31.7,30.9,29.83,N/A,-737280,0.0,-999.0,97,0.00,,,0.33,Wunderground v.1.15,2013-01-16 17:12:00,
2013-01-16 12:17:00,31.7,30.9,29.83,N/A,-737280,0.0,-999.0,97,0.00,,,0.33,Wunderground v.1.15,2013-01-16 17:17:00,
2013-01-16 12:22:00,31.7,30.9,29.83,N/A,-737280,0.0,-999.0,97,0.00,,,0.33,Wunderground v.1.15,2013-01-16 17:22:00,
2013-01-16 12:27:00,31.8,31.0,29.84,N/A,-737280,0.0,-999.0,97,0.00,,,0.33,Wunderground v.1.15,2013-01-16 17:27:00,
2013-01-16 12:32:00,31.8,31.0,29.84,N/A,-737280,0.0,-999.0,97,0.00,,,0.33,Wunderground v.1.15,2013-01-16 17:32:00,
2013-01-16 12:33:00,31.9,31.1,29.83,NNW,339,0.0,0.0,97,0.00,,,0.28,Wunderground v.1.15,2013-01-16 17:33:00,
2013-01-16 12:37:00,31.8,31.0,29.84,N/A,-737280,0.0,-999.0,97,0.00,,,0.33,Wunderground v.1.15,2013-01-16 17:37:00,
2013-01-16 12:38:00,32.0,31.2,29.83,North,349,0.0,0.0,97,0.00,,,0.28,Wunderground v.1.15,2013-01-16 17:38:00,
2013-01-16 12:42:00,32.0,31.5,29.83,N/A,-737280,0.0,-999.0,98,0.00,,,0.33,Wunderground v.1.15,2013-01-16 17:42:00,
2013-01-16 12:43:00,32.1,31.6,29.84,North,2,0.0,0.0,98,0.00,,,0.28,Wunderground v.1.15,2013-01-16 17:43:00,
2013-01-16 12:47:00,32.0,31.5,29.83,N/A,-737280,0.0,-999.0,98,0.00,,,0.33,Wunderground v.1.15,2013-01-16 17:47:00,
2013-01-16 12:48:00,32.3,31.8,29.83,NW,311,0.0,5.0,98,0.00,,,0.28,Wunderground v.1.15,2013-01-16 17:48:00,
2013-01-16 12:52:00,32.0,31.5,29.83,N/A,-737280,0.0,-999.0,98,0.00,,,0.33,Wunderground v.1.15,2013-01-16 17:52:00,
2013-01-16 12:53:00,32.6,32.1,29.83,NW,319,1.0,3.0,98,0.00,,,0.28,Wunderground v.1.15,2013-01-16 17:53:00,
2013-01-16 12:57:00,32.5,32.0,29.84,NW,315,1.0,-999.0,98,0.00,,,0.33,Wunderground v.1.15,2013-01-16 17:57:00,
2013-01-16 13:02:00,32.5,32.0,29.84,NW,315,1.0,-999.0,98,0.00,,,0.33,Wunderground v.1.15,2013-01-16 18:02:00,
2013-01-16 13:06:00,32.7,32.2,29.83,NW,306,2.0,2.0,98,0.00,,,0.28,Wunderground v.1.15,2013-01-16 18:06:00,
2013-01-16 13:07:00,32.5,32.0,29.84,NW,315,1.0,-999.0,98,0.00,,,0.33,Wunderground v.1.15,2013-01-16 18:07:00,
2013-01-16 13:11:00,32.8,32.3,29.83,NW,323,1.0,2.0,98,0.00,,,0.28,Wunderground v.1.15,2013-01-16 18:11:00,
2013-01-16 13:12:00,32.7,32.2,29.83,NNW,338,1.0,-999.0,98,0.00,,,0.33,Wunderground v.1.15,2013-01-16 18:12:00,
2013-01-16 13:17:00,32.7,32.2,29.83,NNW,338,1.0,-999.0,98,0.00,,,0.33,Wunderground v.1.15,2013-01-16 18:17:00,
2013-01-16 13:22:00,32.7,32.2,29.83,NNW,338,1.0,-999.0,98,0.00,,,0.33,Wunderground v.1.15,2013-01-16 18:22:00,
2013-01-16 13:27:00,32.9,32.1,29.84,NNW,338,2.0,-999.0,97,0.00,,,0.33,Wunderground v.1.15,2013-01-16 18:27:00,
2013-01-16 13:32:00,32.9,32.1,29.84,NNW,338,2.0,-999.0,97,0.00,,,0.33,Wunderground v.1.15,2013-01-16 18:32:00,
2013-01-16 13:37:00,32.9,32.1,29.84,NNW,338,2.0,-999.0,97,0.00,,,0.33,Wunderground v.1.15,2013-01-16 18:37:00,
2013-01-16 13:42:00,33.1,32.3,29.84,NW,315,2.0,-999.0,97,0.00,,,0.33,Wunderground v.1.15,2013-01-16 18:42:00,
2013-01-16 13:47:00,33.1,32.3,29.84,NW,315,2.0,-999.0,97,0.00,,,0.33,Wunderground v.1.15,2013-01-16 18:47:00,
2013-01-16 13:52:00,33.1,32.3,29.84,NW,315,2.0,-999.0,97,0.00,,,0.33,Wunderground v.1.15,2013-01-16 18:52:00,
2013-01-16 13:57:00,33.2,32.4,29.83,NW,315,2.0,-999.0,97,0.00,,,0.33,Wunderground v.1.15,2013-01-16 18:57:00,
2013-01-16 14:02:00,33.2,32.4,29.83,NW,315,2.0,-999.0,97,0.00,,,0.33,Wunderground v.1.15,2013-01-16 19:02:00,
2013-01-16 14:07:00,33.2,32.4,29.83,NW,315,2.0,-999.0,97,0.00,,,0.33,Wunderground v.1.15,2013-01-16 19:07:00,
2013-01-16 14:12:00,33.1,32.1,29.86,NW,315,2.0,-999.0,96,0.00,,,0.33,Wunderground v.1.15,2013-01-16 19:12:00,
2013-01-16 14:17:00,33.1,32.1,29.86,NW,315,2.0,-999.0,96,0.00,,,0.33,Wunderground v.1.15,2013-01-16 19:17:00,
2013-01-16 14:22:00,33.1,32.1,29.86,NW,315,2.0,-999.0,96,0.00,,,0.33,Wunderground v.1.15,2013-01-16 19:22:00,
2013-01-16 14:27:00,33.1,32.3,29.85,NW,315,1.0,-999.0,97,0.00,,,0.33,Wunderground v.1.15,2013-01-16 19:27:00,
2013-01-16 14:32:00,33.1,32.3,29.85,NW,315,1.0,-999.0,97,0.00,,,0.33,Wunderground v.1.15,2013-01-16 19:32:00,
2013-01-16 14:37:00,33.1,32.3,29.85,NW,315,1.0,-999.0,97,0.00,,,0.33,Wunderground v.1.15,2013-01-16 19:37:00,
2013-01-16 14:42:00,33.2,32.4,29.86,NNW,338,1.0,-999.0,97,0.00,,,0.33,Wunderground v.1.15,2013-01-16 19:42:00,
2013-01-16 14:47:00,33.2,32.4,29.86,NNW,338,1.0,-999.0,97,0.00,,,0.33,Wunderground v.1.15,2013-01-16 19:47:00,
2013-01-16 14:52:00,33.2,32.4,29.86,NNW,338,1.0,-999.0,97,0.00,,,0.33,Wunderground v.1.15,2013-01-16 19:52:00,
2013-01-16 14:57:00,33.2,32.4,29.86,NNW,338,1.0,-999.0,97,0.00,,,0.33,Wunderground v.1.15,2013-01-16 19:57:00,
2013-01-16 15:02:00,33.2,32.4,29.86,NNW,338,1.0,-999.0,97,0.00,,,0.33,Wunderground v.1.15,2013-01-16 20:02:00,
2013-01-16 15:07:00,33.2,32.4,29.86,NNW,338,1.0,-999.0,97,0.00,,,0.33,Wunderground v.1.15,2013-01-16 20:07:00,
2013-01-16 15:12:00,32.9,31.9,29.85,NW,315,2.0,-999.0,96,0.00,,,0.33,Wunderground v.1.15,2013-01-16 20:12:00,
2013-01-16 15:17:00,32.9,31.9,29.85,NW,315,2.0,-999.0,96,0.00,,,0.33,Wunderground v.1.15,2013-01-16 20:17:00,
2013-01-16 15:22:00,32.9,31.9,29.85,NW,315,2.0,-999.0,96,0.00,,,0.33,Wunderground v.1.15,2013-01-16 20:22:00,
2013-01-16 15:27:00,32.7,31.7,29.86,NW,315,2.0,-999.0,96,0.00,,,0.33,Wunderground v.1.15,2013-01-16 20:27:00,
2013-01-16 15:32:00,32.7,31.7,29.86,NW,315,2.0,-999.0,96,0.00,,,0.33,Wunderground v.1.15,2013-01-16 20:32:00,
2013-01-16 15:37:00,32.7,31.7,29.86,NW,315,2.0,-999.0,96,0.00,,,0.33,Wunderground v.1.15,2013-01-16 20:37:00,
2013-01-16 15:42:00,32.7,31.9,29.87,WSW,248,3.0,-999.0,97,0.00,,,0.33,Wunderground v.1.15,2013-01-16 20:42:00,
2013-01-16 15:47:00,32.7,31.9,29.87,WSW,248,3.0,-999.0,97,0.00,,,0.33,Wunderground v.1.15,2013-01-16 20:47:00,
2013-01-16 15:52:00,32.7,31.9,29.87,WSW,248,3.0,-999.0,97,0.00,,,0.33,Wunderground v.1.15,2013-01-16 20:52:00,
2013-01-16 15:57:00,32.6,31.8,29.88,NW,315,3.0,-999.0,97,0.00,,,0.33,Wunderground v.1.15,2013-01-16 20:57:00,
2013-01-16 16:02:00,32.6,31.8,29.88,NW,315,3.0,-999.0,97,0.00,,,0.33,Wunderground v.1.15,2013-01-16 21:02:00,
2013-01-16 16:07:00,32.6,31.8,29.88,NW,315,3.0,-999.0,97,0.00,,,0.33,Wunderground v.1.15,2013-01-16 21:07:00,
2013-01-16 16:12:00,32.6,31.8,29.88,NW,315,3.0,-999.0,97,0.00,,,0.33,Wunderground v.1.15,2013-01-16 21:12:00,
2013-01-16 16:17:00,32.6,31.8,29.88,NW,315,3.0,-999.0,97,0.00,,,0.33,Wunderground v.1.15,2013-01-16 21:17:00,
2013-01-16 16:22:00,32.6,31.8,29.88,NW,315,3.0,-999.0,97,0.00,,,0.33,Wunderground v.1.15,2013-01-16 21:22:00,
2013-01-16 16:27:00,32.7,31.9,29.88,NW,315,2.0,-999.0,97,0.00,,,0.33,Wunderground v.1.15,2013-01-16 21:27:00,
2013-01-16 16:32:00,32.7,31.9,29.88,NW,315,2.0,-999.0,97,0.00,,,0.33,Wunderground v.1.15,2013-01-16 21:32:00,
2013-01-16 16:37:00,32.7,31.9,29.88,NW,315,2.0,-999.0,97,0.00,,,0.33,Wunderground v.1.15,2013-01-16 21:37:00,
2013-01-16 16:42:00,32.9,31.9,29.89,NW,315,3.0,-999.0,96,0.00,,,0.33,Wunderground v.1.15,2013-01-16 21:42:00,
2013-01-16 16:47:00,32.9,31.9,29.89,NW,315,3.0,-999.0,96,0.00,,,0.33,Wunderground v.1.15,2013-01-16 21:47:00,
2013-01-16 16:52:00,32.9,31.9,29.89,NW,315,3.0,-999.0,96,0.00,,,0.33,Wunderground v.1.15,2013-01-16 21:52:00,
2013-01-16 16:57:00,32.9,31.6,29.89,NW,315,2.0,-999.0,95,0.00,,,0.33,Wunderground v.1.15,2013-01-16 21:57:00,
2013-01-16 17:02:00,32.9,31.6,29.89,NW,315,2.0,-999.0,95,0.00,,,0.33,Wunderground v.1.15,2013-01-16 22:02:00,
2013-01-16 17:07:00,32.9,31.6,29.89,NW,315,2.0,-999.0,95,0.00,,,0.33,Wunderground v.1.15,2013-01-16 22:07:00,
2013-01-16 17:12:00,32.9,31.4,29.90,NW,315,3.0,-999.0,94,0.00,,,0.33,Wunderground v.1.15,2013-01-16 22:12:00,
2013-01-16 17:17:00,32.9,31.4,29.90,NW,315,3.0,-999.0,94,0.00,,,0.33,Wunderground v.1.15,2013-01-16 22:17:00,
2013-01-16 17:22:00,32.9,31.4,29.90,NW,315,3.0,-999.0,94,0.00,,,0.33,Wunderground v.1.15,2013-01-16 22:22:00,
2013-01-16 17:27:00,32.9,31.4,29.90,NW,315,2.0,-999.0,94,0.00,,,0.33,Wunderground v.1.15,2013-01-16 22:27:00,
2013-01-16 17:32:00,32.9,31.4,29.90,NW,315,2.0,-999.0,94,0.00,,,0.33,Wunderground v.1.15,2013-01-16 22:32:00,
2013-01-16 17:37:00,32.9,31.4,29.90,NW,315,2.0,-999.0,94,0.00,,,0.33,Wunderground v.1.15,2013-01-16 22:37:00,
2013-01-16 17:42:00,32.8,31.0,29.90,NW,315,2.0,-999.0,93,0.00,,,0.33,Wunderground v.1.15,2013-01-16 22:42:00,
2013-01-16 17:47:00,32.8,31.0,29.90,NW,315,2.0,-999.0,93,0.00,,,0.33,Wunderground v.1.15,2013-01-16 22:47:00,
2013-01-16 17:52:00,32.8,31.0,29.90,NW,315,2.0,-999.0,93,0.00,,,0.33,Wunderground v.1.15,2013-01-16 22:52:00,
2013-01-16 17:57:00,32.7,30.9,29.91,NW,315,2.0,-999.0,93,0.00,,,0.33,Wunderground v.1.15,2013-01-16 22:57:00,
2013-01-16 18:02:00,32.7,30.9,29.91,NW,315,2.0,-999.0,93,0.00,,,0.33,Wunderground v.1.15,2013-01-16 23:02:00,
2013-01-16 18:07:00,32.7,30.9,29.91,NW,315,2.0,-999.0,93,0.00,,,0.33,Wunderground v.1.15,2013-01-16 23:07:00,
2013-01-16 18:12:00,32.6,30.3,29.91,WSW,248,4.0,-999.0,91,0.00,,,0.33,Wunderground v.1.15,2013-01-16 23:12:00,
2013-01-16 18:17:00,32.6,30.3,29.91,WSW,248,4.0,-999.0,91,0.00,,,0.33,Wunderground v.1.15,2013-01-16 23:17:00,
2013-01-16 18:22:00,32.6,30.3,29.91,WSW,248,4.0,-999.0,91,0.00,,,0.33,Wunderground v.1.15,2013-01-16 23:22:00,
2013-01-16 18:27:00,32.6,30.3,29.93,NW,315,3.0,-999.0,91,0.00,,,0.33,Wunderground v.1.15,2013-01-16 23:27:00,
2013-01-16 18:32:00,32.6,30.3,29.93,NW,315,3.0,-999.0,91,0.00,,,0.33,Wunderground v.1.15,2013-01-16 23:32:00,
2013-01-16 18:37:00,32.6,30.3,29.93,NW,315,3.0,-999.0,91,0.00,,,0.33,Wunderground v.1.15,2013-01-16 23:37:00,
2013-01-16 18:42:00,32.4,30.1,29.92,NNW,338,3.0,-999.0,91,0.00,,,0.33,Wunderground v.1.15,2013-01-16 23:42:00,
2013-01-16 18:47:00,32.4,30.1,29.92,NNW,338,3.0,-999.0,91,0.00,,,0.33,Wunderground v.1.15,2013-01-16 23:47:00,
2013-01-16 18:52:00,32.4,30.1,29.92,NNW,338,3.0,-999.0,91,0.00,,,0.33,Wunderground v.1.15,2013-01-16 23:52:00,
2013-01-16 18:57:00,32.2,29.6,29.93,NW,315,3.0,-999.0,90,0.00,,,0.33,Wunderground v.1.15,2013-01-16 23:57:00,
2013-01-16 19:02:00,32.2,29.6,29.93,NW,315,3.0,-999.0,90,0.00,,,0.33,Wunderground v.1.15,2013-01-17 00:02:00,
2013-01-16 19:07:00,32.2,29.6,29.93,NW,315,3.0,-999.0,90,0.00,,,0.33,Wunderground v.1.15,2013-01-17 00:07:00,
2013-01-16 19:12:00,32.1,29.5,29.93,WSW,248,4.0,-999.0,90,0.00,,,0.33,Wunderground v.1.15,2013-01-17 00:12:00,
2013-01-16 19:17:00,32.1,29.5,29.93,WSW,248,4.0,-999.0,90,0.00,,,0.33,Wunderground v.1.15,2013-01-17 00:17:00,
2013-01-16 19:22:00,32.1,29.5,29.93,WSW,248,4.0,-999.0,90,0.00,,,0.33,Wunderground v.1.15,2013-01-17 00:22:00,
2013-01-16 19:27:00,31.9,29.0,29.93,West,270,3.0,-999.0,89,0.00,,,0.33,Wunderground v.1.15,2013-01-17 00:27:00,
2013-01-16 19:32:00,31.9,29.0,29.93,West,270,3.0,-999.0,89,0.00,,,0.33,Wunderground v.1.15,2013-01-17 00:32:00,
2013-01-16 19:37:00,31.9,29.0,29.93,West,270,3.0,-999.0,89,0.00,,,0.33,Wunderground v.1.15,2013-01-17 00:37:00,
2013-01-16 19:42:00,31.9,28.8,29.93,WSW,248,3.0,-999.0,88,0.00,,,0.33,Wunderground v.1.15,2013-01-17 00:42:00,
2013-01-16 19:47:00,31.9,28.8,29.93,WSW,248,3.0,-999.0,88,0.00,,,0.33,Wunderground v.1.15,2013-01-17 00:47:00,
2013-01-16 19:52:00,31.9,28.8,29.93,WSW,248,3.0,-999.0,88,0.00,,,0.33,Wunderground v.1.15,2013-01-17 00:52:00,
2013-01-16 19:57:00,31.8,28.7,29.93,NW,315,2.0,-999.0,88,0.00,,,0.33,Wunderground v.1.15,2013-01-17 00:57:00,
2013-01-16 20:02:00,31.8,28.7,29.93,NW,315,2.0,-999.0,88,0.00,,,0.33,Wunderground v.1.15,2013-01-17 01:02:00,
2013-01-16 20:07:00,31.8,28.7,29.93,NW,315,2.0,-999.0,88,0.00,,,0.33,Wunderground v.1.15,2013-01-17 01:07:00,
2013-01-16 20:12:00,31.8,28.4,29.93,NNW,338,2.0,-999.0,87,0.00,,,0.33,Wunderground v.1.15,2013-01-17 01:12:00,
2013-01-16 20:17:00,31.8,28.4,29.93,NNW,338,2.0,-999.0,87,0.00,,,0.33,Wunderground v.1.15,2013-01-17 01:17:00,
2013-01-16 20:22:00,31.8,28.4,29.93,NNW,338,2.0,-999.0,87,0.00,,,0.33,Wunderground v.1.15,2013-01-17 01:22:00,
2013-01-16 20:27:00,31.7,27.7,29.92,NW,315,3.0,-999.0,85,0.00,,,0.33,Wunderground v.1.15,2013-01-17 01:27:00,
2013-01-16 20:32:00,31.7,27.7,29.92,NW,315,3.0,-999.0,85,0.00,,,0.33,Wunderground v.1.15,2013-01-17 01:32:00,
2013-01-16 20:37:00,31.7,27.7,29.92,NW,315,3.0,-999.0,85,0.00,,,0.33,Wunderground v.1.15,2013-01-17 01:37:00,
2013-01-16 20:42:00,31.7,27.4,29.92,NW,315,2.0,-999.0,84,0.00,,,0.33,Wunderground v.1.15,2013-01-17 01:42:00,
2013-01-16 20:47:00,31.7,27.4,29.92,NW,315,2.0,-999.0,84,0.00,,,0.33,Wunderground v.1.15,2013-01-17 01:47:00,
2013-01-16 20:52:00,31.7,27.4,29.92,NW,315,2.0,-999.0,84,0.00,,,0.33,Wunderground v.1.15,2013-01-17 01:52:00,
2013-01-16 20:57:00,31.6,27.6,29.93,NW,315,2.0,-999.0,85,0.00,,,0.33,Wunderground v.1.15,2013-01-17 01:57:00,
2013-01-16 21:02:00,31.6,27.6,29.93,NW,315,2.0,-999.0,85,0.00,,,0.33,Wunderground v.1.15,2013-01-17 02:02:00,
2013-01-16 21:07:00,31.6,27.6,29.93,NW,315,2.0,-999.0,85,0.00,,,0.33,Wunderground v.1.15,2013-01-17 02:07:00,
2013-01-16 21:12:00,31.5,27.8,29.93,NW,315,2.0,-999.0,86,0.00,,,0.33,Wunderground v.1.15,2013-01-17 02:12:00,
2013-01-16 21:17:00,31.5,27.8,29.93,NW,315,2.0,-999.0,86,0.00,,,0.33,Wunderground v.1.15,2013-01-17 02:17:00,
2013-01-16 21:22:00,31.5,27.8,29.93,NW,315,2.0,-999.0,86,0.00,,,0.33,Wunderground v.1.15,2013-01-17 02:22:00,
2013-01-16 21:27:00,31.3,27.9,29.94,NW,315,1.0,-999.0,87,0.00,,,0.33,Wunderground v.1.15,2013-01-17 02:27:00,
2013-01-16 21:32:00,31.3,27.9,29.94,NW,315,1.0,-999.0,87,0.00,,,0.33,Wunderground v.1.15,2013-01-17 02:32:00,
2013-01-16 21:37:00,31.3,27.9,29.94,NW,315,1.0,-999.0,87,0.00,,,0.33,Wunderground v.1.15,2013-01-17 02:37:00,
2013-01-16 21:42:00,31.2,28.1,29.94,NW,315,1.0,-999.0,88,0.00,,,0.33,Wunderground v.1.15,2013-01-17 02:42:00,
2013-01-16 21:47:00,31.2,28.1,29.94,NW,315,1.0,-999.0,88,0.00,,,0.33,Wunderground v.1.15,2013-01-17 02:47:00,
2013-01-16 21:52:00,31.2,28.1,29.94,NW,315,1.0,-999.0,88,0.00,,,0.33,Wunderground v.1.15,2013-01-17 02:52:00,
2013-01-16 21:57:00,31.1,28.0,29.94,NNW,338,2.0,-999.0,88,0.00,,,0.33,Wunderground v.1.15,2013-01-17 02:57:00,
2013-01-16 22:02:00,31.1,28.0,29.94,NNW,338,2.0,-999.0,88,0.00,,,0.33,Wunderground v.1.15,2013-01-17 03:02:00,
2013-01-16 22:07:00,31.1,28.0,29.94,NNW,338,2.0,-999.0,88,0.00,,,0.33,Wunderground v.1.15,2013-01-17 03:07:00,
2013-01-16 22:12:00,31.0,27.9,29.94,NW,315,2.0,-999.0,88,0.00,,,0.33,Wunderground v.1.15,2013-01-17 03:12:00,
2013-01-16 22:17:00,31.0,27.9,29.94,NW,315,2.0,-999.0,88,0.00,,,0.33,Wunderground v.1.15,2013-01-17 03:17:00,
2013-01-16 22:22:00,31.0,27.9,29.94,NW,315,2.0,-999.0,88,0.00,,,0.33,Wunderground v.1.15,2013-01-17 03:22:00,
2013-01-16 22:27:00,31.0,27.6,29.94,WSW,248,3.0,-999.0,87,0.00,,,0.33,Wunderground v.1.15,2013-01-17 03:27:00,
2013-01-16 22:32:00,31.0,27.6,29.94,WSW,248,3.0,-999.0,87,0.00,,,0.33,Wunderground v.1.15,2013-01-17 03:32:00,
2013-01-16 22:37:00,31.0,27.6,29.94,WSW,248,3.0,-999.0,87,0.00,,,0.33,Wunderground v.1.15,2013-01-17 03:37:00,
2013-01-16 22:42:00,31.1,27.7,29.93,WSW,248,4.0,-999.0,87,0.00,,,0.33,Wunderground v.1.15,2013-01-17 03:42:00,
2013-01-16 22:47:00,31.1,27.7,29.93,WSW,248,4.0,-999.0,87,0.00,,,0.33,Wunderground v.1.15,2013-01-17 03:47:00,
2013-01-16 22:52:00,31.1,27.7,29.93,WSW,248,4.0,-999.0,87,0.00,,,0.33,Wunderground v.1.15,2013-01-17 03:52:00,
2013-01-16 22:57:00,31.0,27.6,29.93,NW,315,2.0,-999.0,87,0.00,,,0.33,Wunderground v.1.15,2013-01-17 03:57:00,
2013-01-16 23:02:00,31.0,27.6,29.93,NW,315,2.0,-999.0,87,0.00,,,0.33,Wunderground v.1.15,2013-01-17 04:02:00,
2013-01-16 23:07:00,31.0,27.6,29.93,NW,315,2.0,-999.0,87,0.00,,,0.33,Wunderground v.1.15,2013-01-17 04:07:00,
2013-01-16 23:12:00,30.9,27.2,29.93,NW,315,3.0,-999.0,86,0.00,,,0.33,Wunderground v.1.15,2013-01-17 04:12:00,
2013-01-16 23:17:00,30.9,27.2,29.93,NW,315,3.0,-999.0,86,0.00,,,0.33,Wunderground v.1.15,2013-01-17 04:17:00,
2013-01-16 23:22:00,30.9,27.2,29.93,NW,315,3.0,-999.0,86,0.00,,,0.33,Wunderground v.1.15,2013-01-17 04:22:00,
2013-01-16 23:27:00,30.9,26.6,29.93,WNW,293,3.0,-999.0,84,0.00,,,0.33,Wunderground v.1.15,2013-01-17 04:27:00,
2013-01-16 23:32:00,30.9,26.6,29.93,WNW,293,3.0,-999.0,84,0.00,,,0.33,Wunderground v.1.15,2013-01-17 04:32:00,
2013-01-16 23:37:00,30.9,26.6,29.93,WNW,293,3.0,-999.0,84,0.00,,,0.33,Wunderground v.1.15,2013-01-17 04:37:00,
2013-01-16 23:42:00,30.9,26.6,29.93,WNW,293,3.0,-999.0,84,0.00,,,0.33,Wunderground v.1.15,2013-01-17 04:42:00,
2013-01-16 23:47:00,30.9,26.6,29.93,WNW,293,3.0,-999.0,84,0.00,,,0.33,Wunderground v.1.15,2013-01-17 04:47:00,
2013-01-16 23:52:00,30.9,26.6,29.93,WNW,293,3.0,-999.0,84,0.00,,,0.33,Wunderground v.1.15,2013-01-17 04:52:00,
2013-01-16 23:57:00,30.8,26.5,29.94,NW,315,2.0,-999.0,84,0.05,,,0.33,Wunderground v.1.15,2013-01-17 04:57:00,